Miscellaneous Local Product
Issued by NWS Hastings, NE

Home | Current Version | Previous Version | Text Only | Print | Product List | Glossary Off
Versions: 1 2 3 4 5 6 7 8 9 10 11 12 13 14 15 16 17 18 19 20 21 22 23 24 25 26 27 28 29 30 31 32 33 34 35 36 37 38 39 40 41 42 43 44 45 46 47 48 49 50

371
AXUS43 KGID 220402
MISGRI

GID CWA HOURLY WEATHER ROUNDUP
NATIONAL WEATHER SERVICE HASTINGS NE
1000 PM CST SUN JAN 21 2018

NOTE: "FAIR" INDICATES FEW OR NO CLOUDS BELOW 12,000 FEET WITH NO
SIGNIFICANT WEATHER AND/OR OBSTRUCTIONS TO VISIBILITY.

...SOUTH CENTRAL NEBRASKA...

CITY           SKY/WX    TMP DP  RH WIND       PRES   REMARKS
GRAND ISLAND   CLOUDY    33  33 100 NE24G32   29.63F WCI  20
KEARNEY        MIX PCPN  32  31  96 NE22G30   29.62F WCI  19
HASTINGS       CLOUDY    33  32  96 NE17      29.62F FOG     WCI  22
ORD            LGT SNOW  33  31  92 NE30G44   29.68F FOG     WCI  19
YORK           PTCLDY    36  36 100 NE22G28   29.62S FOG     WCI  24
AURORA         CLOUDY    34  34  99 NE22G36   29.62S WCI  22
LEXINGTON      LGT SNOW  33  31  93 N17       29.64F WCI  21
HOLDREGE       LGT SNOW  32  32 100 NE20      29.60S WCI  20
HEBRON         FOG       37  37  98 NE10G17   29.59F VSB 1/2 WCI  30

...NEBRASKA PANHANDLE...

CITY           SKY/WX    TMP DP  RH WIND       PRES   REMARKS
CHADRON        CLOUDY    27  22  81 NW8       29.98F WCI  19
ALLIANCE       CLOUDY    26  25  96 N24       29.90F FOG     WCI  11
SCOTTSBLUFF    CLOUDY    28  22  78 NW18      29.96S WCI  15
SIDNEY         FLURRIES  26  23  88 N28       29.87F WCI  10

...WESTERN AND NORTH CENTRAL NEBRASKA...

CITY           SKY/WX    TMP DP  RH WIND       PRES   REMARKS
VALENTINE      LGT SNOW  30  27  88 N20       29.89F VSB 3/4 WCI  17
AINSWORTH      LGT SNOW  29  29  99 N30       29.85F VSB 3/4 WCI  13
ONEILL         LGT SNOW  32  32 100 N26G32    29.80F WCI  18
BROKEN BOW     LGT SNOW  32  29  88 N29G41    29.67F FOG     WCI  18
IMPERIAL       CLOUDY    28  27  96 N29G41    29.77R FOG     WCI  12
NORTH PLATTE   FOG       30  27  88 N25G33    29.72F VSB 3/4 WCI  16
MCCOOK         LGT SNOW  31  30  96 N25G36    29.66F VSB 1   WCI  17

...EASTERN NEBRASKA...

CITY           SKY/WX    TMP DP  RH WIND       PRES   REMARKS
NORFOLK        LGT RAIN  44  32  62 NE18G24   29.72R
SO SIOUX CITY  CLOUDY    36  32  85 NE22G28   29.72F WCI  25
TEKAMAH        LGT RAIN  37  34  89 N14       29.70S FOG     WCI  28
COLUMBUS       LGT RAIN  35  33  92 NE22      29.68F WCI  23
ALBION         LGT SNOW  34  32  93 NE22G28   29.72S WCI  22
OMAHA EPPLEY   LGT RAIN  38  36  92 N10       29.66F FOG     WCI  31
OFFUTT AFB     LGT RAIN  38  37  99 NE9       29.64F WCI  31
MILLARD        DRIZZLE   39  37  94 N5        29.65F
LINCOLN        CLOUDY    37  36  96 NE16      29.62F WCI  28
NEBRASKA CITY  CLOUDY    39  39 100 N12       29.61S FOG     WCI  32
BEATRICE       CLOUDY    40  40 100 NE8       29.59F FOG     WCI  34
FALLS CITY     MOCLDY    44  44 100 NW8       29.58F FOG

...NORTHERN KANSAS...

CITY           SKY/WX    TMP DP  RH WIND       PRES   REMARKS
GOODLAND       FOG       27  25  92 NW35G52   29.70F VSB 1/4 WCI  10
HILL CITY      LGT RAIN  33  33 100 N13       29.59R FOG     WCI  24
NORTON         MIX PCPN  34  28  80 N15       29.59  WCI  24
PHILLIPSBURG   CLOUDY    36  36 100 N12       29.58F FOG     WCI  27
SMITH CENTER   FOG       34  34 100 NE14      29.58F VSB 1   WCI  24
BELOIT         FOG       37  37 100 CALM      29.58F VSB 1/2
HAYS           FOG       34  34 100 NW6       29.57F VSB 1/2 WCI  29
RUSSELL        FOG       38  38 100 N5        29.55F VSB 1/4 WCI  34
CONCORDIA      FOG       38  38 100 SE6       29.57F VSB 1/2 WCI  33
SALINA         CLOUDY    38  37  97 W7        29.55F WCI  33
TOPEKA         MOCLDY    48  42  80 W6        29.55F



USA.gov is the U.S. government's official web portal to all federal, state and local government web resources and services.